When you browse on this site, cookies collect data to enhance your experience and personalize the content and advertising you see.
Visit our Privacy Policy to learn more. By continuing to use the site, you agree to this use of cookies and data.
  • In Österreich
  • Länderverzeichnis
  • Für 7 Tage
  • Wassertemperatur
  • Wetterkarte
  • News
  • Widgets
  • user-avatar
    Anmelden

    Stündliche Wetter Herāt

    Heute, 20 Februar, Donnerstag

    Zeit Temperatur Niederschläge Wind Luftdruck Luftfeuchtigkeit
    00:00 +5°C° 0 mm 1 m/S 681 mmHg 51%
    01:00 +4°C° 0 mm 1 m/S 680 mmHg 52%
    02:00 +4°C° 0 mm 1 m/S 680 mmHg 50%
    03:00 +3°C° 0 mm 2 m/S 680 mmHg 49%
    04:00 +3°C° 0 mm 2 m/S 679 mmHg 47%
    05:00 +3°C° 0 mm 2 m/S 679 mmHg 45%
    06:00 +3°C° 0 mm 2 m/S 679 mmHg 43%
    07:00 +3°C° 0 mm 2 m/S 679 mmHg 41%
    08:00 +6°C° 0 mm 2 m/S 679 mmHg 35%
    09:00 +9°C° 0 mm 1 m/S 680 mmHg 28%
    10:00 +11°C° 0 mm 1 m/S 680 mmHg 23%
    11:00 +13°C° 0 mm 2 m/S 680 mmHg 21%
    12:00 +14°C° 0 mm 2 m/S 680 mmHg 20%
    13:00 +15°C° 0 mm 2 m/S 679 mmHg 18%
    14:00 +16°C° 0 mm 2 m/S 679 mmHg 20%
    15:00 +16°C° 0 mm 2 m/S 679 mmHg 21%
    16:00 +16°C° 0 mm 2 m/S 679 mmHg 23%
    17:00 +15°C° 0 mm 2 m/S 679 mmHg 28%
    18:00 +14°C° 0 mm 2 m/S 679 mmHg 33%
    19:00 +13°C° 0 mm 1 m/S 679 mmHg 38%
    20:00 +12°C° 0 mm 1 m/S 679 mmHg 39%
    21:00 +12°C° 0 mm 2 m/S 679 mmHg 40%
    22:00 +12°C° 0 mm 2 m/S 679 mmHg 42%
    23:00 +12°C° 0 mm 2 m/S 678 mmHg 38%

    Morgen, 21 Februar, Freitag

    Zeit Temperatur Niederschläge Wind Luftdruck Luftfeuchtigkeit
    00:00 +11°C° 0 mm 3 m/S 678 mmHg 35%
    01:00 +11°C° 0 mm 3 m/S 677 mmHg 31%
    02:00 +10°C° 0 mm 5 m/S 677 mmHg 31%
    03:00 +11°C° 0 mm 7 m/S 677 mmHg 31%
    04:00 +11°C° 0 mm 9 m/S 677 mmHg 30%
    05:00 +11°C° 0 mm 8 m/S 677 mmHg 37%
    06:00 +11°C° 0 mm 6 m/S 678 mmHg 44%
    07:00 +10°C° 0 mm 5 m/S 678 mmHg 51%
    08:00 +13°C° 0 mm 6 m/S 679 mmHg 44%
    09:00 +13°C° 0 mm 8 m/S 679 mmHg 37%
    10:00 +16°C° 0 mm 9 m/S 680 mmHg 30%
    17:00 +17°C° 0 mm 7 m/S 680 mmHg 28%
    18:00 +15°C° 0 mm 5 m/S 680 mmHg 32%
    19:00 +14°C° 0 mm 3 m/S 681 mmHg 36%
    20:00 +14°C° 0 mm 2 m/S 681 mmHg 39%
    21:00 +13°C° 0 mm 2 m/S 681 mmHg 42%
    22:00 +12°C° 0 mm 1 m/S 682 mmHg 44%
    23:00 +12°C° 0 mm 1 m/S 682 mmHg 45%

    übermorgen, 22 Februar, Samstag

    Zeit Temperatur Niederschläge Wind Luftdruck Luftfeuchtigkeit
    00:00 +11°C° 0 mm 1 m/S 681 mmHg 46%
    01:00 +11°C° 0 mm 1 m/S 681 mmHg 47%
    02:00 +11°C° 0 mm 1 m/S 681 mmHg 48%
    03:00 +10°C° 0 mm 1 m/S 681 mmHg 48%
    04:00 +10°C° 0 mm 1 m/S 681 mmHg 48%
    05:00 +10°C° 0 mm 1 m/S 681 mmHg 48%
    06:00 +9°C° 0 mm 2 m/S 682 mmHg 48%
    07:00 +9°C° 0 mm 2 m/S 682 mmHg 48%
    08:00 +13°C° 0 mm 2 m/S 683 mmHg 42%
    09:00 +14°C° 0 mm 3 m/S 683 mmHg 36%
    10:00 +17°C° 0 mm 3 m/S 684 mmHg 29%
    11:00 +19°C° 0 mm 3 m/S 684 mmHg 27%
    12:00 +20°C° 0 mm 3 m/S 684 mmHg 25%
    13:00 +21°C° 0 mm 3 m/S 683 mmHg 23%
    14:00 +21°C° 0 mm 3 m/S 683 mmHg 23%
    15:00 +21°C° 0 mm 3 m/S 683 mmHg 23%
    16:00 +22°C° 0 mm 3 m/S 683 mmHg 24%
    17:00 +20°C° 0 mm 2 m/S 683 mmHg 30%
    18:00 +19°C° 0 mm 1 m/S 682 mmHg 36%
    19:00 +16°C° 0 mm 1 m/S 682 mmHg 42%
    20:00 +16°C° 0 mm 1 m/S 682 mmHg 42%
    21:00 +15°C° 0 mm 2 m/S 682 mmHg 41%
    22:00 +14°C° 0 mm 3 m/S 682 mmHg 41%
    23:00 +14°C° 0 mm 3 m/S 681 mmHg 41%

    23 Februar, Sonntag

    Zeit Temperatur Niederschläge Wind Luftdruck Luftfeuchtigkeit
    00:00 +13°C° 0 mm 3 m/S 681 mmHg 42%
    01:00 +13°C° 0 mm 3 m/S 681 mmHg 42%
    02:00 +12°C° 0 mm 3 m/S 680 mmHg 42%
    03:00 +12°C° 0 mm 4 m/S 680 mmHg 41%
    04:00 +12°C° 0 mm 4 m/S 680 mmHg 41%
    05:00 +12°C° 0 mm 4 m/S 680 mmHg 41%
    06:00 +12°C° 0 mm 4 m/S 680 mmHg 40%
    07:00 +12°C° 0 mm 4 m/S 680 mmHg 40%
    08:00 +15°C° 0 mm 4 m/S 681 mmHg 37%
    09:00 +17°C° 0 mm 5 m/S 681 mmHg 34%
    10:00 +20°C° 0 mm 6 m/S 682 mmHg 30%
    11:00 +21°C° 0 mm 6 m/S 682 mmHg 30%
    12:00 +22°C° 0 mm 7 m/S 681 mmHg 29%
    13:00 +22°C° 0 mm 8 m/S 681 mmHg 29%
    14:00 +22°C° 0 mm 7 m/S 681 mmHg 29%
    15:00 +22°C° 0 mm 7 m/S 680 mmHg 29%
    16:00 +22°C° 0 mm 6 m/S 680 mmHg 29%
    17:00 +21°C° 0 mm 5 m/S 680 mmHg 34%
    18:00 +19°C° 0 mm 4 m/S 680 mmHg 39%
    19:00 +18°C° 0 mm 3 m/S 681 mmHg 44%
    20:00 +17°C° 0 mm 2 m/S 681 mmHg 46%
    21:00 +16°C° 0 mm 2 m/S 681 mmHg 48%
    22:00 +16°C° 0 mm 1 m/S 681 mmHg 49%
    23:00 +15°C° 0 mm 1 m/S 681 mmHg 50%

    24 Februar, Montag

    Zeit Temperatur Niederschläge Wind Luftdruck Luftfeuchtigkeit
    00:00 +15°C° 0 mm 1 m/S 680 mmHg 51%
    01:00 +14°C° 0 mm 2 m/S 680 mmHg 52%
    02:00 +14°C° 0 mm 1 m/S 680 mmHg 53%
    03:00 +13°C° 0 mm 1 m/S 679 mmHg 54%
    04:00 +13°C° 0 mm 1 m/S 679 mmHg 56%
    05:00 +13°C° 0 mm 1 m/S 679 mmHg 56%
    06:00 +13°C° 0 mm 1 m/S 679 mmHg 56%
    07:00 +12°C° 0 mm 1 m/S 680 mmHg 55%
    08:00 +15°C° 0 mm 2 m/S 680 mmHg 49%
    09:00 +17°C° 0 mm 2 m/S 681 mmHg 43%
    10:00 +19°C° 0 mm 3 m/S 681 mmHg 36%
    11:00 +20°C° 0 mm 3 m/S 681 mmHg 31%
    12:00 +21°C° 0 mm 3 m/S 681 mmHg 26%
    13:00 +22°C° 0 mm 4 m/S 680 mmHg 21%
    14:00 +22°C° 0 mm 4 m/S 680 mmHg 21%
    15:00 +22°C° 0 mm 4 m/S 680 mmHg 20%
    16:00 +22°C° 0 mm 4 m/S 679 mmHg 20%
    17:00 +21°C° 0 mm 4 m/S 679 mmHg 24%
    18:00 +20°C° 0 mm 4 m/S 679 mmHg 27%
    19:00 +19°C° 0 mm 4 m/S 679 mmHg 31%
    20:00 +18°C° 0 mm 4 m/S 679 mmHg 32%
    21:00 +18°C° 0 mm 4 m/S 679 mmHg 34%
    22:00 +17°C° 0 mm 4 m/S 679 mmHg 35%
    23:00 +16°C° 0 mm 5 m/S 679 mmHg 35%

    25 Februar, Dienstag

    Zeit Temperatur Niederschläge Wind Luftdruck Luftfeuchtigkeit
    00:00 +16°C° 0 mm 5 m/S 679 mmHg 34%
    01:00 +16°C° 0 mm 6 m/S 679 mmHg 33%
    02:00 +16°C° 0 mm 6 m/S 678 mmHg 34%
    03:00 +15°C° 0 mm 5 m/S 678 mmHg 35%
    04:00 +15°C° 0 mm 5 m/S 677 mmHg 36%
    05:00 +15°C° 0 mm 6 m/S 677 mmHg 35%
    06:00 +15°C° 0 mm 6 m/S 677 mmHg 35%
    07:00 +16°C° 0 mm 6 m/S 677 mmHg 34%
    08:00 +17°C° 0 mm 8 m/S 678 mmHg 31%
    09:00 +19°C° 0 mm 9 m/S 678 mmHg 29%
    10:00 +22°C° 0 mm 10 m/S 679 mmHg 26%
    11:00 +21°C° 0 mm 11 m/S 678 mmHg 28%
    12:00 +21°C° 0 mm 12 m/S 678 mmHg 30%
    13:00 +21°C° 0 mm 12 m/S 677 mmHg 32%
    14:00 +21°C° 0 mm 12 m/S 676 mmHg 31%
    15:00 +22°C° 0 mm 11 m/S 676 mmHg 30%
    16:00 +22°C° 0 mm 10 m/S 675 mmHg 29%
    17:00 +22°C° 0 mm 10 m/S 675 mmHg 29%
    18:00 +21°C° 0 mm 10 m/S 675 mmHg 30%
    19:00 +19°C° 0 mm 9 m/S 675 mmHg 30%
    20:00 +21°C° 0 mm 11 m/S 674 mmHg 29%
    21:00 +20°C° 0 mm 13 m/S 674 mmHg 28%
    22:00 +20°C° 0 mm 15 m/S 673 mmHg 27%
    23:00 +20°C° 0 mm 15 m/S 673 mmHg 27%
    Mehr zeigen